Weather History for Banff, AB

Change the Weather History Date:

Wednesday, January 2, 2013

  Actual Average Record
Temperature  
Mean Temperature 11 °F -  
Max Temperature 17 °F - - ()
Min Temperature 5 °F - - ()
Degree Days  
Heating Degree Days 54    
Moisture  
Dew Point 4 °F    
Average Humidity 76    
Maximum Humidity 82    
Minimum Humidity 61    
Precipitation  
Precipitation 0.12 in - - ()
Sea Level Pressure  
Sea Level Pressure 30.56 in    
Wind  
Wind Speed 7 mph ()    
Max Wind Speed 12 mph    
Max Gust Speed 23 mph    
T = Trace of Precipitation, MM = Missing Value Source: Averaged Metar Reports

Daily Weather History Graph

Daily Weather History Graph

Search for Another Location

Airport:

Trip Planner

Search our weather history database for the weather conditions in past years. The results will help you decide how hot, cold, wet, or windy it might be!

Date:

Astronomy

Jan. 02, 2013 Rise Set
Actual Time 8:46 AM MST 4:47 PM MST
Civil Twilight 8:06 AM MST 5:26 PM MST
Nautical Twilight 7:24 AM MST 6:09 PM MST
Astronomical Twilight 6:43 AM MST 6:49 PM MST
Moon 11:06 PM MST (1/2) 10:51 AM MST (1/2)
Length of Visible Light 9h 19m
Length of Day
8h 00m
Waning Gibbous, 74% of the Moon is Illuminated
Jan 2
Waning Gibbous
Jan 4
Last Quarter
Jan 11
New
Jan 18
First Quarter
Jan 26
Full

Hourly Weather History & Observations

Time (MST) Temp. Windchill Dew Point Humidity Pressure Visibility Wind Dir Wind Speed Gust Speed Precip Events Conditions
12:00 AM 9.0 °F -2.2 °F 4.1 °F 81% 30.58 in - West 6.9 mph - N/A   Unknown
1:00 AM 8.6 °F -2.6 °F 3.7 °F 81% 30.58 in - WSW 6.9 mph - N/A   Unknown
2:00 AM 7.7 °F -0.9 °F 2.8 °F 81% 30.57 in - WSW 4.6 mph - N/A   Unknown
3:00 AM 6.6 °F -2.2 °F 1.9 °F 81% 30.59 in - WSW 4.6 mph - N/A   Unknown
4:00 AM 5.4 °F -3.6 °F 0.9 °F 82% 30.61 in - SW 4.6 mph - N/A   Unknown
5:00 AM 6.4 °F -5.2 °F 1.9 °F 82% 30.59 in - WSW 6.9 mph - N/A   Unknown
6:00 AM 5.7 °F -7.2 °F 0.9 °F 80% 30.61 in - West 8.1 mph 18.4 mph N/A   Unknown
7:00 AM 5.2 °F -5.4 °F 0.7 °F 82% 30.63 in - West 5.8 mph - N/A   Unknown
8:00 AM 5.2 °F -5.4 °F 0.5 °F 81% 30.63 in - WSW 5.8 mph - N/A   Unknown
9:00 AM 6.1 °F -6.8 °F 1.2 °F 80% 30.61 in - SW 8.1 mph - N/A   Unknown
10:00 AM 5.7 °F -9.9 °F 0.3 °F 78% 30.63 in - SW 11.5 mph 18.4 mph N/A   Unknown
11:00 AM 7.2 °F -8.1 °F 0.3 °F 74% 30.62 in - SW 11.5 mph 18.4 mph N/A   Unknown
12:00 PM 10.4 °F -2.4 °F 1.8 °F 68% 30.58 in - SSW 9.2 mph - N/A   Unknown
1:00 PM 14.2 °F 3.1 °F 3.4 °F 62% 30.54 in - WSW 8.1 mph - N/A   Unknown
2:00 PM 16.0 °F 5.3 °F 4.8 °F 61% 30.51 in - WSW 8.1 mph - N/A   Unknown
3:00 PM 17.1 °F 5.0 °F 5.7 °F 61% 30.51 in - WSW 10.4 mph 19.6 mph N/A   Unknown
4:00 PM 15.3 °F 2.8 °F 6.8 °F 69% 30.51 in - WSW 10.4 mph 17.3 mph N/A   Unknown
5:00 PM 13.5 °F 2.2 °F 6.8 °F 75% 30.52 in - WSW 8.1 mph - N/A   Unknown
6:00 PM 12.4 °F 0.9 °F 6.3 °F 76% 30.51 in - WSW 8.1 mph - N/A   Unknown
7:00 PM 12.7 °F 1.4 °F 6.3 °F 75% 30.51 in - WSW 8.1 mph 20.7 mph N/A   Unknown
8:00 PM 12.4 °F -0.8 °F 5.9 °F 75% 30.51 in - SW 10.4 mph 18.4 mph N/A   Unknown
9:00 PM 12.2 °F -1.8 °F 6.1 °F 76% 30.49 in - WSW 11.5 mph 23.0 mph N/A   Unknown
10:00 PM 12.0 °F -2.0 °F 5.9 °F 76% 30.48 in - SW 11.5 mph 18.4 mph N/A   Unknown
11:00 PM 11.5 °F -1.1 °F 5.5 °F 77% 30.47 in - SW 9.2 mph - N/A   Unknown